SCP
0 0 0 0 0 0 0 0 0 0 0 0 0 0 0 0 0 0 0 0 0 0 0 0 0 0 0 0 0 0 0 0 0 0 0 0 0 0 0 0 0 0 0
0 0 0 0 0 0 0 0 0 0 0 0 0 0 0 0 0 0 0 0 0 0 0 0 0 0 0 0 0 0 0 0 0 0 0 0 0 0 0 0 0 0 0
0 0 0 0 0 0 0 0 0 0 0 0 0 0 0 0 0 0 0 0 0 0 0 0 0 0 0 0 0 0 0 0 0 0 0 0 0 0 0 0 0 0 0
0 0 0 0 0 0 0 0 0 0 0 0 0 0 0 0 0 0 0 0 0 0 0 0 0 0 0 0 0 0 0 0 0 0 0 0 0 0 0 0 0 0 0
0 0 0 0 0 0 0 0 0 0 0 0 0 0 0 0 0 0 0 0 0 0 0 0 0 0 0 0 0 0 0 0 0 0 0 0 0 0 0 0 0 0 0
0 0 0 0 0 0 0 0 0 0 0 0 0 0 0 0 0 0 0 0 0 0 0 0 0 0 0 0 0 0 0 0 0 0 0 0 0 0 0 0 0 0 0
0 0 0 0 0 0 0 0 0 0 0 0 0 0 0 0 0 0 0 0 0 0 0 0 0 0 0 0 0 0 0 0 0 0 0 0 0 0 0 0 0 0 0
0 0 0 0 0 0 0 0 0 0 0 0 0 0 0 0 0 0 0 0 0 -0 0 0 0 0 0 0 0 0 0 0 0 0 0 0 0 0 0 0 0 0 0
0 0 0 0 0 0 0 0 0 0 0 0 0 0 0 0 0 0 0 0 0 0 0 0 0 0 0 0 0 0 0 -0 -0 0 0 0 0 0 0 0 0 0 0
0 0 0 0 0 0 0 0 0 0 0 0 0 0 0 0 0 0 0 0 0 0 0 0 0 0 0 0 0 0 0 0 0 0 0 0 0 0 0 0 0 0 0
0 0 0 0 0 0 0 0 0 0 0 0 0 0 0 0 0 0 0 0 0 0 0 -0 0 0 0 0 0 -0 0 0 0 0 0 0 0 0 0 0 0 0 0
0 0 0 0 0 0 0 0 0 0 0 0 0 0 0 0 0 0 0 -0 0 0 0 -0 0 0 0 0 0 0 0 0 0 0 0 0 0 0 0 0 0 0 0
0 0 0 0 0 0 0 0 0 0 0 0 0 0 0 0 0 0 0 0 -0 0 0 -0 0 0 0 0 0 0 0 0 0 0 0 0 0 0 0 0 0 0 0
0 0 0 0 0 0 0 0 0 0 0 0 0 0 0 0 0 0 0 0 0 -0 -0 -0 -0 0 0 0 0 0 0 0 0 0 0 0 0 0 0 0 0 0 0
0 0 0 0 0 0 0 0 0 0 0 0 0 0 0 0 0 0 0 0 0 0 -0 -0 -0 0 0 0 0 0 0 0 0 0 0 0 0 0 0 0 0 0 0
0 0 0 0 0 0 0 0 0 0 -0 -0 0 0 0 -0 0 0 0 -0 -0 -0 0 -0 -0 0 -0 0 0 0 0 0 0 0 0 0 0 0 0 0 0 0 0
0 0 0 0 0 0 0 0 0 0 0 0 0 0 0 0 -0 0 0 0 0 0 -0 -0 -0 0 0 0 0 0 0 0 0 0 -0 -0 0 0 0 0 0 0 0
0 -0 0 0 0 0 0 0 -0 0 0 0 0 0 -0 -0 -0 -0 -0 -0 -0 -0 0 -0 -0 -0 -0 0 -0 -0 -0 0 -0 -0 0 0 0 0 0 0 0 0 0
0 0 0 0 0 0 0 0 -0 0 0 0 0 0 0 0 0 0 0 0 0 0 0 0 0 0 0 0 -0 -0 -0 -0 -0 0 -0 0 0 0 0 0 0 0 0
0 -0 -0 0 0 0 0 0 0 0 0 0 0 0 0 0 0 0 0 0 0 0 0 0 0 0 0 0 0 0 0 0 0 -0 -0 0 0 0 0 0 0 0 0
-0 0 -0 0 0 0 0 0 0 0 0 0 -0 -0 -0 -0 0 -0 0 0 0 0 0 0 0 0 0 0 0 0 0 0 0 0 0 0 0 0 0 0 0 0 -0
-0 0 0 0 0 -0 0 -0 -0 0 0 0 0 0 -0 0 -0 -0 0 0 0 0 0 0 0 0 0 0 0 0 0 0 0 0 0 0 0 0 0 0 0 0 0
-0 0 0 -0 -0 -0 -0 -0 -0 -0 0 0 0 0 0 -0 -0 -0 0 0 0 0 0 0 0 0 0 0 0 0 0 0 0 0 0 0 0 0 0 0 0 0 0
-0 0 -0 -0 -0 -0 -0 0 0 -0 0 0 0 0 0 0 -0 -0 0 0 0 0 0 0 0 0 0 0 0 0 0 0 0 0 0 0 0 0 0 0 0 0 0
-0 0 -0 -0 -0 -0 -0 0 0 -0 -0 0 0 0 0 -0 0 0 0 0 0 0 0 0 0 0 0 0 0 0 0 0 0 0 0 0 0 0 0 0 0 0 0
-0 0 -0 -0 -0 -0 -0 0 0 -0 -0 0 0 0 0 0 0 0 0 0 0 0 0 0 0 0 0 0 0 0 0 0 0 0 0 0 0 0 0 0 0 0 0
Wind_Speed_500mb
70 77 75 78 82 82 70 68 71 69 71 70 79 87 94 97 90 86 81 88 82 74 67 69 73 73 76 77 78 78 78 75 85 75 71 61 51 47 42 73 65 71 76
76 76 80 82 78 77 75 79 81 78 85 93 94 84 77 78 75 76 83 83 75 73 75 72 69 68 74 71 72 75 79 74 66 75 63 56 54 36 40 43 65 71 70
78 81 79 75 76 81 79 75 85 91 78 75 79 81 85 78 80 81 82 82 78 74 70 71 68 68 66 66 74 75 64 56 68 71 50 42 48 45 46 42 49 63 58
74 70 69 72 78 74 84 91 81 79 80 77 80 83 86 83 82 86 86 86 79 75 73 68 65 70 66 77 59 71 60 76 69 65 61 51 48 47 42 48 52 48 57
68 70 77 82 80 86 75 75 81 79 80 82 85 86 85 85 82 85 75 81 87 73 66 63 74 69 67 61 66 55 63 57 64 58 70 59 58 53 48 43 41 49 48
67 78 74 79 85 82 79 80 90 85 88 81 85 82 85 81 77 74 74 72 75 85 75 72 66 65 78 60 69 64 57 65 73 66 65 51 59 55 47 42 39 38 47
72 71 74 82 84 78 79 89 91 86 89 87 84 83 83 80 72 73 68 67 65 60 61 65 59 59 55 52 60 51 47 41 43 39 66 53 54 44 36 37 30 41 37
70 77 77 83 83 82 86 88 89 88 86 86 89 79 81 83 73 67 60 59 55 55 55 48 56 57 52 57 53 53 53 52 58 66 61 67 49 42 38 34 26 28 42
71 78 83 83 81 90 91 92 95 95 95 89 89 91 86 88 71 66 52 49 49 51 46 44 44 52 54 46 47 51 55 57 40 63 56 51 57 58 48 39 36 29 39
79 78 79 79 85 91 91 94 96 93 95 94 96 86 76 73 67 57 49 46 47 46 43 38 36 39 41 39 45 51 54 56 59 55 48 41 39 48 52 63 51 48 49
74 76 85 83 86 88 93 93 93 88 90 86 79 73 64 56 55 51 43 43 44 43 36 32 35 29 36 38 38 37 38 47 47 43 46 46 48 53 55 47 50 55 56
75 82 86 85 84 87 88 90 79 76 72 78 90 90 80 60 48 44 39 41 40 41 38 28 23 23 27 28 34 41 30 36 38 37 39 41 41 46 48 61 52 53 64
77 82 83 86 85 84 81 75 73 63 63 82 74 70 65 61 61 52 41 41 42 40 38 31 26 20 19 17 24 33 33 33 32 34 37 35 35 35 39 58 51 47 50
75 81 82 85 83 78 72 66 60 59 60 66 64 67 65 65 62 57 52 39 41 39 36 34 30 29 28 29 28 27 24 28 34 38 38 38 35 36 35 44 41 44 47
73 76 82 82 80 75 65 57 54 53 54 50 58 65 67 68 68 61 54 54 40 41 36 33 34 35 36 38 42 42 45 43 42 39 39 38 36 36 38 36 35 39 43
73 75 78 76 75 66 59 56 49 45 41 39 51 56 64 65 71 63 23 32 39 39 31 36 32 34 39 41 40 40 40 45 46 41 40 39 38 39 42 43 40 47 48
70 71 71 73 68 60 52 53 58 49 41 45 47 53 58 64 64 62 61 51 40 29 22 20 23 29 36 34 41 45 44 37 39 43 43 42 42 40 39 38 42 44 55
68 63 64 67 59 54 46 46 44 42 49 54 53 49 53 56 61 39 29 24 20 16 19 14 12 22 36 39 42 48 48 49 53 49 46 41 44 48 42 45 47 54 58
66 61 59 59 53 49 44 43 43 42 43 44 49 49 49 51 56 58 58 58 51 39 26 19 16 14 18 21 27 31 36 45 52 55 58 55 56 57 53 57 57 59 59
61 52 52 53 50 49 46 44 44 41 39 42 51 43 45 53 57 56 55 50 46 40 34 31 27 23 19 15 22 32 34 36 40 40 43 48 53 49 62 61 55 47 40
52 50 47 50 48 46 46 42 39 38 38 41 43 39 42 49 51 52 49 46 43 36 30 24 21 21 18 14 14 14 19 28 38 49 54 55 53 49 43 42 48 39 36
46 47 46 45 47 45 40 37 37 36 36 38 37 36 39 47 48 45 42 42 40 40 34 28 25 24 24 23 14 6 19 24 30 33 33 40 41 38 36 39 44 46 46
41 43 45 43 44 40 38 35 36 37 37 38 37 40 44 46 47 46 46 42 39 37 37 37 32 25 24 23 20 8 10 26 34 36 36 35 34 40 39 50 40 42 52
38 37 40 42 41 37 35 34 36 38 39 37 38 41 43 45 45 43 44 43 39 35 34 34 33 30 29 31 28 17 8 23 43 40 35 32 38 43 36 37 51 50 50
35 34 36 38 40 35 33 32 35 39 41 37 37 40 43 43 43 43 44 46 43 39 40 39 35 35 36 39 35 26 19 25 37 41 40 42 32 46 52 48 47 49 50
31 30 31 34 35 34 33 32 30 34 39 37 37 38 39 42 41 42 47 50 48 39 41 41 41 40 46 45 37 29 30 46 53 43 48 47 47 48 47 49 50 50 45
Wind_Direction_500mb
305 306 305 306 308 308 308 305 304 306 301 296 295 295 294 296 298 291 290 292 285 281 283 273 266 266 267 260 256 259 261 255 252 255 257 264 266 260 249 241 236 232 237
307 306 308 309 310 309 307 304 303 300 300 299 303 304 307 303 299 293 295 297 289 280 272 276 271 269 269 262 255 257 258 251 248 250 250 254 257 262 256 252 225 231 230
306 307 310 312 310 308 310 306 305 307 310 310 310 309 309 305 302 297 292 291 283 278 276 265 268 264 267 256 254 250 253 248 246 252 246 252 249 248 237 240 237 235 229
311 314 312 309 311 310 307 308 315 318 310 305 303 300 302 300 293 297 291 289 286 283 269 265 264 253 267 252 248 251 253 248 245 247 249 244 248 240 243 243 223 224 222
314 313 312 311 311 314 318 317 315 309 308 301 302 300 302 300 298 292 288 287 282 272 264 263 262 260 259 254 253 254 249 255 251 235 244 240 239 236 231 242 240 227 224
314 314 319 318 319 324 318 315 315 309 310 307 306 303 300 299 296 290 288 287 283 277 267 273 270 261 255 246 236 241 243 247 240 238 242 237 230 226 237 244 251 227 229
318 324 323 321 323 318 314 315 318 312 311 310 307 304 301 300 294 294 288 283 281 281 275 269 266 263 254 258 256 254 244 250 226 230 232 227 229 226 237 235 248 228 223
324 323 321 323 323 320 319 318 319 318 314 312 308 306 302 301 301 295 290 288 279 282 277 270 266 266 258 253 258 250 253 259 253 242 243 238 230 228 228 241 254 236 218
319 321 324 326 320 321 321 320 319 316 315 311 309 306 300 301 293 296 287 286 283 277 282 273 269 261 251 239 247 260 253 259 247 224 236 236 235 227 231 237 242 232 232
321 326 329 323 321 322 321 320 319 317 316 312 311 309 305 298 291 293 282 278 281 278 276 269 263 252 252 243 243 254 247 240 223 212 216 217 217 227 235 242 238 230 231
325 329 331 326 326 327 323 323 322 322 320 321 316 311 307 302 296 292 274 271 272 272 275 265 256 258 239 244 244 242 192 195 202 213 220 227 228 232 233 234 228 218 226
337 333 331 329 332 329 325 326 328 329 329 330 330 316 312 311 306 295 272 262 261 259 261 257 248 254 249 243 231 220 203 208 215 227 236 238 239 241 234 223 234 234 233
332 332 333 335 335 330 328 334 335 335 336 337 338 338 334 324 312 303 280 259 250 246 248 248 233 244 233 230 214 219 213 211 225 237 241 243 240 228 232 223 234 228 231
334 335 338 337 334 337 341 344 343 339 339 337 345 350 345 330 323 313 301 282 235 234 233 231 230 233 225 233 227 213 208 224 226 231 245 244 240 235 226 224 229 226 229
337 338 338 338 338 342 344 350 352 352 344 341 355 1 357 347 335 315 286 269 251 208 212 218 218 218 226 237 246 244 237 232 232 232 235 239 238 232 222 228 230 230 223
340 339 340 340 345 346 348 352 3 360 354 354 360 2 1 356 353 354 326 204 228 175 196 214 220 225 235 242 242 241 238 227 226 235 240 241 235 225 224 225 231 226 235
341 340 341 346 347 348 354 358 351 356 5 5 6 6 10 14 24 41 71 98 121 147 185 205 223 232 237 247 252 241 235 227 227 237 245 240 228 223 227 233 228 230 225
344 346 349 348 350 351 356 359 351 357 0 7 13 17 19 31 42 69 79 110 130 132 175 205 254 256 260 259 252 249 242 247 236 238 237 230 228 222 232 228 225 220 208
345 350 350 352 356 358 4 3 2 5 11 26 26 26 32 42 49 57 70 76 78 81 91 108 123 148 166 170 226 240 235 237 238 233 226 226 232 236 227 218 214 211 210
347 354 358 360 3 4 9 9 11 21 27 34 37 36 41 45 46 48 52 58 66 70 76 79 81 78 79 113 156 162 179 199 220 222 227 228 224 217 212 207 200 196 194
348 356 2 7 9 8 12 20 26 34 38 46 48 42 44 51 53 49 47 48 50 52 59 67 70 74 84 98 113 141 177 182 176 173 177 184 187 191 198 190 180 194 227
352 0 2 6 12 12 15 25 38 41 46 50 52 46 47 55 50 42 45 48 49 51 49 47 50 52 47 46 48 173 193 183 177 178 178 180 175 176 195 203 206 203 205
356 2 5 9 13 17 29 36 41 46 52 53 54 53 51 48 39 39 44 41 40 41 46 45 45 47 39 25 19 22 192 190 185 183 180 179 181 183 196 186 193 211 185
358 3 11 15 17 23 35 41 47 50 49 54 59 56 53 48 39 38 37 36 35 37 41 42 43 39 30 22 23 30 111 168 183 180 173 169 187 188 188 189 178 177 175
1 4 11 19 20 26 39 45 46 46 48 55 59 54 48 42 39 39 32 32 37 43 42 42 35 33 30 29 33 44 85 136 149 157 168 177 165 157 163 165 167 169 171
6 10 13 20 25 31 39 43 43 44 45 49 53 47 48 50 40 33 32 35 38 47 44 43 38 33 33 35 40 62 103 129 134 135 134 139 146 154 161 162 161 161 163
Wind_Speed_850mb
70 77 75 78 82 82 70 68 71 69 71 70 79 87 94 97 90 86 81 88 82 74 67 69 73 73 76 77 78 78 78 75 85 75 71 61 51 47 42 73 65 71 76
76 76 80 82 78 77 75 79 81 78 85 93 94 84 77 78 75 76 83 83 75 73 75 72 69 68 74 71 72 75 79 74 66 75 63 56 54 36 40 43 65 71 70
78 81 79 75 76 81 79 75 85 91 78 75 79 81 85 78 80 81 82 82 78 74 70 71 68 68 66 66 74 75 64 56 68 71 50 42 48 45 46 42 49 63 58
74 70 69 72 78 74 84 91 81 79 80 77 80 83 86 83 82 86 86 86 79 75 73 68 65 70 66 77 59 71 60 76 69 65 61 51 48 47 42 48 52 48 57
68 70 77 82 80 86 75 75 81 79 80 82 85 86 85 85 82 85 75 81 87 73 66 63 74 69 67 61 66 55 63 57 64 58 70 59 58 53 48 43 41 49 48
67 78 74 79 85 82 79 80 90 85 88 81 85 82 85 81 77 74 74 72 75 85 75 72 66 65 78 60 69 64 57 65 73 66 65 51 59 55 47 42 39 38 47
72 71 74 82 84 78 79 89 91 86 89 87 84 83 83 80 72 73 68 67 65 60 61 65 59 59 55 52 60 51 47 41 43 39 66 53 54 44 36 37 30 41 37
70 77 77 83 83 82 86 88 89 88 86 86 89 79 81 83 73 67 60 59 55 55 55 48 56 57 52 57 53 53 53 52 58 66 61 67 49 42 38 34 26 28 42
71 78 83 83 81 90 91 92 95 95 95 89 89 91 86 88 71 66 52 49 49 51 46 44 44 52 54 46 47 51 55 57 40 63 56 51 57 58 48 39 36 29 39
79 78 79 79 85 91 91 94 96 93 95 94 96 86 76 73 67 57 49 46 47 46 43 38 36 39 41 39 45 51 54 56 59 55 48 41 39 48 52 63 51 48 49
74 76 85 83 86 88 93 93 93 88 90 86 79 73 64 56 55 51 43 43 44 43 36 32 35 29 36 38 38 37 38 47 47 43 46 46 48 53 55 47 50 55 56
75 82 86 85 84 87 88 90 79 76 72 78 90 90 80 60 48 44 39 41 40 41 38 28 23 23 27 28 34 41 30 36 38 37 39 41 41 46 48 61 52 53 64
77 82 83 86 85 84 81 75 73 63 63 82 74 70 65 61 61 52 41 41 42 40 38 31 26 20 19 17 24 33 33 33 32 34 37 35 35 35 39 58 51 47 50
75 81 82 85 83 78 72 66 60 59 60 66 64 67 65 65 62 57 52 39 41 39 36 34 30 29 28 29 28 27 24 28 34 38 38 38 35 36 35 44 41 44 47
73 76 82 82 80 75 65 57 54 53 54 50 58 65 67 68 68 61 54 54 40 41 36 33 34 35 36 38 42 42 45 43 42 39 39 38 36 36 38 36 35 39 43
73 75 78 76 75 66 59 56 49 45 41 39 51 56 64 65 71 63 23 32 39 39 31 36 32 34 39 41 40 40 40 45 46 41 40 39 38 39 42 43 40 47 48
70 71 71 73 68 60 52 53 58 49 41 45 47 53 58 64 64 62 61 51 40 29 22 20 23 29 36 34 41 45 44 37 39 43 43 42 42 40 39 38 42 44 55
68 63 64 67 59 54 46 46 44 42 49 54 53 49 53 56 61 39 29 24 20 16 19 14 12 22 36 39 42 48 48 49 53 49 46 41 44 48 42 45 47 54 58
66 61 59 59 53 49 44 43 43 42 43 44 49 49 49 51 56 58 58 58 51 39 26 19 16 14 18 21 27 31 36 45 52 55 58 55 56 57 53 57 57 59 59
61 52 52 53 50 49 46 44 44 41 39 42 51 43 45 53 57 56 55 50 46 40 34 31 27 23 19 15 22 32 34 36 40 40 43 48 53 49 62 61 55 47 40
52 50 47 50 48 46 46 42 39 38 38 41 43 39 42 49 51 52 49 46 43 36 30 24 21 21 18 14 14 14 19 28 38 49 54 55 53 49 43 42 48 39 36
46 47 46 45 47 45 40 37 37 36 36 38 37 36 39 47 48 45 42 42 40 40 34 28 25 24 24 23 14 6 19 24 30 33 33 40 41 38 36 39 44 46 46
41 43 45 43 44 40 38 35 36 37 37 38 37 40 44 46 47 46 46 42 39 37 37 37 32 25 24 23 20 8 10 26 34 36 36 35 34 40 39 50 40 42 52
38 37 40 42 41 37 35 34 36 38 39 37 38 41 43 45 45 43 44 43 39 35 34 34 33 30 29 31 28 17 8 23 43 40 35 32 38 43 36 37 51 50 50
35 34 36 38 40 35 33 32 35 39 41 37 37 40 43 43 43 43 44 46 43 39 40 39 35 35 36 39 35 26 19 25 37 41 40 42 32 46 52 48 47 49 50
31 30 31 34 35 34 33 32 30 34 39 37 37 38 39 42 41 42 47 50 48 39 41 41 41 40 46 45 37 29 30 46 53 43 48 47 47 48 47 49 50 50 45
Wind_Direction_850mb
305 306 305 306 308 308 308 305 304 306 301 296 295 295 294 296 298 291 290 292 285 281 283 273 266 266 267 260 256 259 261 255 252 255 257 264 266 260 249 241 236 232 237
307 306 308 309 310 309 307 304 303 300 300 299 303 304 307 303 299 293 295 297 289 280 272 276 271 269 269 262 255 257 258 251 248 250 250 254 257 262 256 252 225 231 230
306 307 310 312 310 308 310 306 305 307 310 310 310 309 309 305 302 297 292 291 283 278 276 265 268 264 267 256 254 250 253 248 246 252 246 252 249 248 237 240 237 235 229
311 314 312 309 311 310 307 308 315 318 310 305 303 300 302 300 293 297 291 289 286 283 269 265 264 253 267 252 248 251 253 248 245 247 249 244 248 240 243 243 223 224 222
314 313 312 311 311 314 318 317 315 309 308 301 302 300 302 300 298 292 288 287 282 272 264 263 262 260 259 254 253 254 249 255 251 235 244 240 239 236 231 242 240 227 224
314 314 319 318 319 324 318 315 315 309 310 307 306 303 300 299 296 290 288 287 283 277 267 273 270 261 255 246 236 241 243 247 240 238 242 237 230 226 237 244 251 227 229
318 324 323 321 323 318 314 315 318 312 311 310 307 304 301 300 294 294 288 283 281 281 275 269 266 263 254 258 256 254 244 250 226 230 232 227 229 226 237 235 248 228 223
324 323 321 323 323 320 319 318 319 318 314 312 308 306 302 301 301 295 290 288 279 282 277 270 266 266 258 253 258 250 253 259 253 242 243 238 230 228 228 241 254 236 218
319 321 324 326 320 321 321 320 319 316 315 311 309 306 300 301 293 296 287 286 283 277 282 273 269 261 251 239 247 260 253 259 247 224 236 236 235 227 231 237 242 232 232
321 326 329 323 321 322 321 320 319 317 316 312 311 309 305 298 291 293 282 278 281 278 276 269 263 252 252 243 243 254 247 240 223 212 216 217 217 227 235 242 238 230 231
325 329 331 326 326 327 323 323 322 322 320 321 316 311 307 302 296 292 274 271 272 272 275 265 256 258 239 244 244 242 192 195 202 213 220 227 228 232 233 234 228 218 226
337 333 331 329 332 329 325 326 328 329 329 330 330 316 312 311 306 295 272 262 261 259 261 257 248 254 249 243 231 220 203 208 215 227 236 238 239 241 234 223 234 234 233
332 332 333 335 335 330 328 334 335 335 336 337 338 338 334 324 312 303 280 259 250 246 248 248 233 244 233 230 214 219 213 211 225 237 241 243 240 228 232 223 234 228 231
334 335 338 337 334 337 341 344 343 339 339 337 345 350 345 330 323 313 301 282 235 234 233 231 230 233 225 233 227 213 208 224 226 231 245 244 240 235 226 224 229 226 229
337 338 338 338 338 342 344 350 352 352 344 341 355 1 357 347 335 315 286 269 251 208 212 218 218 218 226 237 246 244 237 232 232 232 235 239 238 232 222 228 230 230 223
340 339 340 340 345 346 348 352 3 360 354 354 360 2 1 356 353 354 326 204 228 175 196 214 220 225 235 242 242 241 238 227 226 235 240 241 235 225 224 225 231 226 235
341 340 341 346 347 348 354 358 351 356 5 5 6 6 10 14 24 41 71 98 121 147 185 205 223 232 237 247 252 241 235 227 227 237 245 240 228 223 227 233 228 230 225
344 346 349 348 350 351 356 359 351 357 0 7 13 17 19 31 42 69 79 110 130 132 175 205 254 256 260 259 252 249 242 247 236 238 237 230 228 222 232 228 225 220 208
345 350 350 352 356 358 4 3 2 5 11 26 26 26 32 42 49 57 70 76 78 81 91 108 123 148 166 170 226 240 235 237 238 233 226 226 232 236 227 218 214 211 210
347 354 358 360 3 4 9 9 11 21 27 34 37 36 41 45 46 48 52 58 66 70 76 79 81 78 79 113 156 162 179 199 220 222 227 228 224 217 212 207 200 196 194
348 356 2 7 9 8 12 20 26 34 38 46 48 42 44 51 53 49 47 48 50 52 59 67 70 74 84 98 113 141 177 182 176 173 177 184 187 191 198 190 180 194 227
352 0 2 6 12 12 15 25 38 41 46 50 52 46 47 55 50 42 45 48 49 51 49 47 50 52 47 46 48 173 193 183 177 178 178 180 175 176 195 203 206 203 205
356 2 5 9 13 17 29 36 41 46 52 53 54 53 51 48 39 39 44 41 40 41 46 45 45 47 39 25 19 22 192 190 185 183 180 179 181 183 196 186 193 211 185
358 3 11 15 17 23 35 41 47 50 49 54 59 56 53 48 39 38 37 36 35 37 41 42 43 39 30 22 23 30 111 168 183 180 173 169 187 188 188 189 178 177 175
1 4 11 19 20 26 39 45 46 46 48 55 59 54 48 42 39 39 32 32 37 43 42 42 35 33 30 29 33 44 85 136 149 157 168 177 165 157 163 165 167 169 171
6 10 13 20 25 31 39 43 43 44 45 49 53 47 48 50 40 33 32 35 38 47 44 43 38 33 33 35 40 62 103 129 134 135 134 139 146 154 161 162 161 161 163